| time (UTC) | temp C | wind direction | speed KPH | gust KPH | rain 1hr cm | rain 24hr cm | rain mn cm | humidity % | barometer mb |
| 20260505051459 | 17 | 150 | 6.4 | 14.5 | 0.00 | 0.00 | 0.00 | 70 | 1003.9 |
| 20260505041458 | 17 | 200 | 4.8 | 12.9 | 0.00 | 0.00 | 0.00 | 66 | 1003.9 |
| 20260505040006 | 17 | 190 | 6.4 | 12.9 | 0.00 | 0.00 | 0.00 | 66 | 1004.1 |
| 20260505034501 | 17 | 219 | 6.4 | 16.1 | 0.00 | 0.00 | 0.00 | 65 | 1004.1 |
| 20260505033001 | 16 | 192 | 4.8 | 14.5 | 0.00 | 0.00 | 0.00 | 64 | 1004.2 |
| 20260505030005 | 14 | 202 | 1.6 | 24.1 | 0.00 | 0.00 | 0.00 | 65 | 1004.7 |
| 20260505024502 | 13 | 210 | 0.0 | 0.0 | 0.00 | 0.00 | 0.00 | 71 | 1004.0 |
| 20260505023001 | 13 | 210 | 0.0 | 0.0 | 0.00 | 0.00 | 0.00 | 72 | 1003.9 |
| 20260505021501 | 14 | 210 | 0.0 | 0.0 | 0.00 | 0.00 | 0.00 | 70 | 1003.8 |
| 20260505020008 | 14 | 210 | 0.0 | 1.6 | 0.00 | 0.00 | 0.00 | 68 | 1004.0 |
| 20260505014501 | 15 | 210 | 0.0 | 1.6 | 0.00 | 0.00 | 0.00 | 64 | 1004.1 |
| 20260505011501 | 15 | 210 | 0.0 | 0.0 | 0.00 | 0.00 | 0.00 | 59 | 1004.0 |
| 20260505010007 | 16 | 210 | 0.0 | 1.6 | 0.00 | 0.00 | 0.00 | 58 | 1003.9 |
| 20260505003001 | 18 | 210 | 0.0 | 1.6 | 0.00 | 0.00 | 0.00 | 51 | 1004.0 |
| 20260505001501 | 19 | 210 | 0.0 | 3.2 | 0.00 | 0.00 | 0.00 | 47 | 1004.0 |
| 20260504234501 | 20 | 205 | 3.2 | 6.4 | 0.00 | 0.00 | 0.00 | 44 | 1004.0 |
| 20260504233002 | 21 | 271 | 1.6 | 6.4 | 0.00 | 0.00 | 0.00 | 44 | 1004.0 |
| 20260504230005 | 22 | 267 | 4.8 | 11.3 | 0.00 | 0.00 | 0.00 | 40 | 1003.9 |
| 20260504224502 | 22 | 325 | 9.7 | 16.1 | 0.00 | 0.00 | 0.00 | 39 | 1003.9 |
| 20260504223001 | 22 | 261 | 8.0 | 17.7 | 0.00 | 0.00 | 0.00 | 37 | 1003.7 |
| 20260504221502 | 23 | 308 | 6.4 | 14.5 | 0.00 | 0.00 | 0.00 | 39 | 1003.6 |
| 20260504220007 | 23 | 289 | 6.4 | 11.3 | 0.00 | 0.00 | 0.00 | 38 | 1003.6 |
| 20260504214500 | 23 | 266 | 6.4 | 19.3 | 0.00 | 0.00 | 0.00 | 38 | 1003.7 |
| 20260504213000 | 23 | 183 | 8.0 | 17.7 | 0.00 | 0.00 | 0.00 | 39 | 1004.0 |
| 20260504210004 | 23 | 251 | 9.7 | 25.7 | 0.00 | 0.00 | 0.00 | 38 | 1003.8 |
| 20260504204500 | 23 | 215 | 9.7 | 16.1 | 0.00 | 0.00 | 0.00 | 41 | 1003.9 |
| 20260504203000 | 22 | 225 | 11.3 | 22.5 | 0.00 | 0.00 | 0.00 | 41 | 1004.1 |
| 20260504201500 | 23 | 277 | 9.7 | 17.7 | 0.00 | 0.00 | 0.00 | 41 | 1004.2 |
| 20260504194500 | 22 | 223 | 11.3 | 29.0 | 0.00 | 0.00 | 0.00 | 41 | 1004.7 |
| 20260504193000 | 22 | 229 | 12.9 | 27.4 | 0.00 | 0.00 | 0.00 | 42 | 1004.9 |
| 20260504191500 | 22 | 234 | 11.3 | 24.1 | 0.00 | 0.00 | 0.00 | 43 | 1005.1 |
| 20260504190004 | 22 | 166 | 11.3 | 17.7 | 0.00 | 0.00 | 0.00 | 46 | 1005.4 |
| 20260504184500 | 22 | 250 | 11.3 | 20.9 | 0.00 | 0.00 | 0.00 | 45 | 1005.4 |
| 20260504183000 | 21 | 250 | 11.3 | 20.9 | 0.00 | 0.00 | 0.00 | 44 | 1005.7 |
| 20260504181500 | 21 | 271 | 12.9 | 27.4 | 0.00 | 0.00 | 0.00 | 47 | 1005.8 |
| 20260504180003 | 21 | 185 | 14.5 | 27.4 | 0.00 | 0.00 | 0.00 | 46 | 1005.9 |
| 20260504174500 | 21 | 212 | 11.3 | 20.9 | 0.00 | 0.00 | 0.00 | 49 | 1006.0 |
| 20260504173000 | 20 | 229 | 9.7 | 20.9 | 0.00 | 0.00 | 0.00 | 51 | 1006.1 |
| 20260504171500 | 20 | 225 | 11.3 | 24.1 | 0.00 | 0.00 | 0.00 | 51 | 1006.3 |
| 20260504081459 | 10 | 205 | 6.4 | 12.9 | 0.00 | 0.00 | 0.00 | 60 | 1008.4 |